Simultaneous Nadir Overpasses (SNOs) Predictions

Prediction of SNOs between NOAA-19 and TERRA Satellite Orbit:

Table of predicted SNOs for the next 14.0 days since TLE Epoch: 8/16/2014
Index Date (NOAA-19) Time (NOAA-19) Lat,Lon (NOAA-19) SZA (NOAA-19 ) Date (TERRA) Time (TERRA) Lat,Lon (TERRA) SZA (TERRA ) Distance(km) Time Diff (sec)
1 08/17/2014 14:46:54 -70.81, 140.11 122.61 08/17/2014 14:47:14 -70.78, 140.08 122.63 2.97 20
2 08/17/2014 15:37:50 70.68, -52.42 57.28 08/17/2014 15:36:41 70.69, -52.41 57.29 1.11 69
3 08/19/2014 19:30:42 -70.85, 69.12 121.86 08/19/2014 19:31:32 -70.83, 69.08 121.87 2.25 50
4 08/19/2014 20:21:39 70.76,-123.47 58.07 08/19/2014 20:20:59 70.74,-123.42 58.05 2.55 40
5 08/22/2014 00:14:35 -71.15, -2.33 120.82 08/22/2014 00:15:47 -71.04, -1.68 120.93 26.69 72
6 08/22/2014 01:05:27 70.78, 165.56 58.82 08/22/2014 01:05:17 70.78, 165.56 58.82 0.81 10
7 08/24/2014 05:49:15 70.82, 94.59 59.60 08/24/2014 05:49:35 70.81, 94.53 59.59 2.34 20
8 08/24/2014 06:40:17 -70.72, -98.02 120.49 08/24/2014 06:39:05 -70.70, -98.01 120.51 2.32 72
9 08/26/2014 10:33:04 70.91, 23.51 60.45 08/26/2014 10:33:52 70.89, 23.57 60.43 3.10 48
10 08/26/2014 11:24:05 -70.78,-169.04 119.66 08/26/2014 11:23:22 -70.78,-168.96 119.67 3.05 43
11 08/28/2014 15:16:56 71.16, -47.85 61.47 08/28/2014 15:18:07 71.07, -47.22 61.39 24.55 71
12 08/28/2014 16:07:52 -70.80, 120.01 118.87 08/28/2014 16:07:40 -70.80, 119.99 118.88 0.48 12




NCC Satellite Simultaneous Nadir Overpasses (SNOs) Prediction Service
